Fayetteville, Georgia, United States (30214)
Lat: 33.45N, Lon: 84.45W
Wx Zone: GAZ054
Local Info
Past Weather Observations for Today

NOTE: This archive is for the closest National Weather Service station to Fayetteville. Information may differ from the station used for current weather conditions.

Click here for Long-term Archive

Time Weather Temperature Dewpoint Humidity Pressure Winds Precip Visibility
20:53
Partly Cloudy
84°F / 29°C 75°F / 24°C 74% 29.98 in
(1015 mb)
Variable 3.5 mph
(Variable 6 kph)
- 10SM
19:53
Clear
82°F / 28°C 79°F / 26°C 89% 29.98 in
(1015 mb)
Calm - 10SM
18:53
Partly Cloudy
90°F / 32°C 75°F / 24°C 63% 29.95 in
(1014 mb)
E 4.6 mph
(E 7 kph)
- 10SM
17:53
Clear
90°F / 32°C 73°F / 23°C 59% 29.95 in
(1014 mb)
Calm - 10SM
16:53
Clear
88°F / 31°C 72°F / 22°C 59% 29.95 in
(1014 mb)
NE 5.8 mph
(NE 9 kph)
- 10SM
15:53
Mostly Cloudy
88°F / 31°C 70°F / 21°C 55% 29.98 in
(1015 mb)
NW 8.1 mph
(NW 13 kph)
- 10SM
14:53
Partly Cloudy
97°F / 36°C 72°F / 22°C 44% 29.95 in
(1014 mb)
N 8.1 mph
(N 13 kph)
- 10SM
13:53
Clear
93°F / 34°C 72°F / 22°C 49% 29.98 in
(1015 mb)
Calm - 10SM
12:53
Clear
93°F / 34°C 72°F / 22°C 49% 30.01 in
(1016 mb)
Variable 5.8 mph
(Variable 9 kph)
- 10SM
11:53
Clear
91°F / 33°C 72°F / 22°C 52% 30.04 in
(1017 mb)
N 8.1 mph
(N 13 kph)
- 10SM
10:53
Clear
90°F / 32°C 72°F / 22°C 55% 30.04 in
(1017 mb)
N 8.1 mph
(N 13 kph)
- 10SM
09:53
Clear
84°F / 29°C 72°F / 22°C 66% 30.04 in
(1017 mb)
N 6.9 mph
(N 11 kph)
- 10SM
08:53
Clear
82°F / 28°C 72°F / 22°C 70% 30.04 in
(1017 mb)
NNW 8.1 mph
(NNW 13 kph)
- 10SM
07:53
Clear
82°F / 28°C 72°F / 22°C 70% 30.04 in
(1017 mb)
NE 4.6 mph
(NE 7 kph)
- 10SM
06:53
Clear
77°F / 25°C 72°F / 22°C 83% 30.04 in
(1017 mb)
Variable 3.5 mph
(Variable 6 kph)
- 9SM
05:53
Clear
Fog And Mist
73°F / 23°C 72°F / 22°C 94% 30.01 in
(1016 mb)
Calm - 6SM
04:53
Clear
73°F / 23°C 72°F / 22°C 94% 29.98 in
(1015 mb)
Calm - 7SM
03:53
Clear
73°F / 23°C 72°F / 22°C 94% 29.98 in
(1015 mb)
Calm - 7SM
02:53
Clear
Fog And Mist
73°F / 23°C 72°F / 22°C 94% 29.98 in
(1015 mb)
Calm - 6SM
01:53
Clear
75°F / 24°C 72°F / 22°C 89% 29.98 in
(1015 mb)
Calm - 8SM
00:53
Clear
75°F / 24°C 72°F / 22°C 89% 30.01 in
(1016 mb)
Calm - 10SM
Time Weather Temperature Dewpoint Humidity Pressure Winds Precip Visibility


Weather for websites

WeatherForYou.com, LLC is not responsible for any damages or problems caused by this service. Current weather conditions are obtained from the closest station including government and personal stations which may have varying degrees of accuracy. Weather forecasts are derived from the NOAA NDFD. Like all things, this site belongs to Jesus Christ... He just trusts us to maintain it. If you have any questions or comments email webmaster@weatherforyou.com

Copyright © 2015, WeatherForYou.com LLC. All rights reserved.